{"data":{"norad_id":64832,"intl_designator":"2025-151S","name":"KUIPER-00086","alt_names":[],"object_type":"PAYLOAD","status":"ACTIVE","operator":null,"country":"US","launch_date":"2025-07-16","launch_site_code":"AFETR","launch_vehicle":null,"mission":null,"orbit_class":"UNKNOWN","rcs_meters":null,"size_class":null,"mass_kg":null,"dimensions":null,"purposes":[],"wikipedia_slug":null,"has_3d_model":false,"image_url":null,"decayed_at":null,"tle_current":{"epoch":"2026-09-21T20:03:20.090880Z","epoch_age_seconds":55911,"freshness":"FRESH","line1":"1 64832U 25151S   26264.83564920  .00000177  00000+0  52208-4 0  9999","line2":"2 64832  51.8998 150.7583 0000973  98.8363 261.2710 14.79931574 64380","mean_motion":14.79931574,"eccentricity":9.73e-5,"inclination_deg":51.8998,"raan_deg":150.7583,"arg_perigee_deg":98.8363,"mean_anomaly_deg":261.271,"bstar":5.2208e-5,"rev_number":6438,"period_min":97.301795927492,"perigee_km":628.85828372243,"apogee_km":630.22197769206,"semimajor_km":7007.6771307072,"source":"CELESTRAK","updated_at":"2026-09-22T09:00:29.977642Z"}}}